LEMUR-2-MANGO1 (47493 NORAD) Tracking and Keplerian Element Data
This shows tracking and keplerian element data for the satellite.
Feedback or suggestion? Click here.
Element | Value |
Catalog | 47493 |
Name | LEMUR-2-MANGO1 |
Epoch Orbit | 1256 |
Epoch Day | 105.70907639 |
Epoch Year | 2021 |
RAAN | 167.9902 |
Inclination | 97.4937 |
Eccentricity | 0.0009787 |
Argument of Perigee | 328.2847 |
Mean Anonmoly | 31.7793 |
Mean Motion | 15.12633918 |
Decay Rate | 1.457E-05 |
L1 | 1 47493U 21006CJ 21105.70907639 .00001457 00000-0 87030-4 0 9995 |
L2 | 2 47493 97.4937 167.9902 0009787 328.2847 31.7793 15.12633918 12560 |
Live tracking and technical data element details for LEMUR-2-MANGO1 (NORAD 47493). LEMUR-2-MANGO1 can be tracked NOW for your location showing map with azimuth and elevation plus other details from your city location.
Track the satellite on the map from your city or location and see movement details for azimuth, elevation, latitude, longitude, range, height, and movement on the map or in text.
IsCatalogInMostPopularTable: catalog: 47493, numindb: 16
Update: records affected: 1
GetName: 47493 LEMUR-2-MANGO1
Hit Count: updated at: Fri, 16 Apr 2021 11:40:11 GMT